Location: Unspecified
(0.0000°N, 0.0000°E)
Time: 04:12:03
(UTC+00:00)

STARLINK-34921 - Visible Passes

Search period start: 14 February 2026 00:00
Search period end: 24 February 2026 00:00
Orbit: 474 x 476 km, 53.2° (Epoch: 10 February)

Date Brightness Start Highest point End Pass type
(mag) Time Alt. Az. Time Alt. Az. Time Alt. Az.
19 Feb 4.6 19:15:52 10° SSE 19:16:35 12° SE 19:16:35 12° SE visible
20 Feb 5.2 20:21:32 10° WSW 20:22:33 17° WSW 20:22:33 17° WSW visible
21 Feb 3.4 19:51:06 10° SW 19:54:27 42° WNW 19:54:27 42° WNW visible
22 Feb 2.8 19:20:39 10° SW 19:24:16 57° WNW 19:26:22 22° NNE visible
23 Feb 2.4 18:50:11 10° SW 18:53:51 78° WNW 18:57:31 10° NNE visible
